Stations météo

Publicité
Nevers, France (7260): Température de l'air & dewpoint: 20.01.2020 00:00:00 - 26.01.2020 00:00:00 (CET)Nevers, France (7260): Température de l'air 5cm: 20.01.2020 00:00:00 - 26.01.2020 00:00:00 (CET)Nevers, France (7260): Température de l'air -20cm & Température de l'air -100cm: 20.01.2020 00:00:00 - 26.01.2020 00:00:00 (CET)Nevers, France (7260): Vitesse du vent & gusts: 20.01.2020 00:00:00 - 26.01.2020 00:00:00 (CET)Nevers, France (7260): Direction du vent: 20.01.2020 00:00:00 - 26.01.2020 00:00:00 (CET)Nevers, France (7260): reduced air pressure: 20.01.2020 00:00:00 - 26.01.2020 00:00:00 (CET)Nevers, France (7260): visibility: 20.01.2020 00:00:00 - 26.01.2020 00:00:00 (CET)Nevers, France (7260): Ensoleillement: 20.01.2020 00:00:00 - 26.01.2020 00:00:00 (CET)Nevers, France (7260): Quantités de précipitations: 20.01.2020 00:00:00 - 26.01.2020 00:00:00 (CET)
Date & Time tt [°C] td [°C] tt 5cm [°C] tt -20cm [°C] tt -100cm [°C] ff [km/h] ff [knt] fx [km/h] fx [knt] dd ppp [hPa] vv [km] sd [min] rr [mm]
26.01.2020 00:00:00 -0,5 -0,9 -3,6 4,9 9,0 4 2 5 3 ENE 1019,8 0,7 0 0,0
25.01.2020 23:00:00 -0,2 -0,8 -3,2 4,9 9,0 2 1 4 2 ENE 1019,8 2,2 0 0,0
25.01.2020 22:00:00 0,6 0,0 -2,4 4,9 9,0 0 0 0 0 N 1019,8 3,2 0 0,0
25.01.2020 21:00:00 1,1 0,2 -2,3 4,8 9,0 0 0 4 2 N 1019,7 2,9 0 0,0
25.01.2020 20:00:00 2,5 1,3 -1,4 4,8 9,0 0 0 4 2 N 1019,5 6 0 0,0
25.01.2020 19:00:00 3,9 1,3 0,8 4,7 9,0 0 0 12 6 N 1019,2 8 0 0,0
25.01.2020 18:00:00 8,4 4,6 5,8 4,6 9,0 11 6 14 8 E 1018,6 16 6 0,0
25.01.2020 17:00:00 10,5 5,3 10,1 4,6 9,0 9 5 19 10 SE 1018,7 19 60 0,0
25.01.2020 16:00:00 11,5 4,9 12,3 4,5 9,0 11 6 23 13 SE 1018,9 20 60 0,0
25.01.2020 15:00:00 11,4 5,0 13,1 4,5 9,0 13 7 22 12 SE 1019,1 20 49 0,0
25.01.2020 14:00:00 11,7 5,6 13,4 4,5 9,0 11 6 23 12 ESE 1019,8 19 60 0,0
25.01.2020 13:00:00 10,2 5,0 8,5 4,5 9,0 15 8 21 11 SE 1020,7 18 50 0,0
25.01.2020 12:00:00 6,9 4,0 6,7 4,5 9,0 9 5 15 8 E 1021,9 10 5 0,0
25.01.2020 11:00:00 5,3 2,8 5,8 4,5 9,0 11 6 16 9 ESE 1022,3 8 51 0,0
25.01.2020 10:00:00 3,1 1,9 0,0 4,6 9,1 2 1 10 6 E 1022,4 4,6 54 0,0
25.01.2020 09:00:00 1,7 1,1 -1,9 4,6 9,1 6 4 10 6 ESE 1022,3 3,9 6 0,0
25.01.2020 08:00:00 0,8 -0,4 -1,8 4,6 9,1 5 3 11 6 E 1021,8 4,0 0 0,0
25.01.2020 07:00:00 1,6 1,2 -4,1 4,6 9,1 3 1 13 7 ESE 1021,7 4,8 0 0,0
25.01.2020 06:00:00 -0,7 -1,3 -3,5 4,6 9,1 0 0 7 4 N 1021,8 0,7 0 0,0
25.01.2020 05:00:00 0,2 -0,7 -2,6 4,6 9,1 3 2 8 4 NE 1021,5 2,3 0 0,0
25.01.2020 04:00:00 0,8 -0,4 -0,9 4,7 9,1 7 4 11 6 ENE 1021,8 4,5 0 0,0
25.01.2020 03:00:00 2,2 1,5 -1,9 4,7 9,1 8 4 10 6 E 1022,2 9 0 0,0
25.01.2020 02:00:00 0,9 0,6 -2,6 4,7 9,1 3 1 5 3 ENE 1022,5 8 0 0,0
25.01.2020 01:00:00 0,1 -0,5 -2,3 4,7 9,1 0 0 9 5 N 1022,8 3,2 0 0,0
25.01.2020 00:00:00 1,5 1,1 -2,2 4,7 9,1 3 2 8 4 NNE 1022,8 3,6 0 0,0
24.01.2020 23:00:00 1,7 1,3 -2,3 4,6 9,1 3 2 5 3 E 1022,9 7 0 0,0
24.01.2020 22:00:00 1,2 0,6 -1,6 4,6 9,1 3 1 5 3 ESE 1023,1 4,3 0 0,0
24.01.2020 21:00:00 1,4 0,7 -1,3 4,5 9,1 0 0 3 2 N 1022,9 6 0 0,0
24.01.2020 20:00:00 2,2 1,2 -0,7 4,4 9,1 0 0 5 3 N 1022,7 8 0 0,0
24.01.2020 19:00:00 3,3 2,1 0,8 4,3 9,1 2 1 4 2 ESE 1022,5 9 0 0,0
24.01.2020 18:00:00 7,0 3,8 1,8 4,3 9,2 0 0 12 6 N 1021,9 12 4 0,0
24.01.2020 17:00:00 11,1 5,6 10,4 4,1 9,1 8 4 16 9 ESE 1021,5 18 60 0,0
24.01.2020 16:00:00 12,4 5,8 14,3 4,1 9,2 11 6 16 9 SE 1021,4 19 60 0,0
24.01.2020 15:00:00 12,5 5,6 16,0 4,0 9,2 10 6 16 9 E 1021,5 16 60 0,0
24.01.2020 14:00:00 12,3 5,9 13,8 4,0 9,2 10 5 16 8 SE 1022,1 18 60 0,0
24.01.2020 13:00:00 10,6 4,7 12,3 4,0 9,2 8 4 13 7 E 1023,0 15 60 0,0
24.01.2020 12:00:00 8,4 3,6 9,9 4,0 9,2 8 5 17 9 ESE 1023,9 11 60 0,0
24.01.2020 11:00:00 6,0 2,3 7,0 4,0 9,2 8 5 17 9 E 1024,2 10 60 0,0
24.01.2020 10:00:00 4,6 1,8 1,9 4,0 9,2 4 2 10 6 E 1024,0 8 30 0,0
24.01.2020 09:00:00 3,0 0,7 1,9 4,0 9,2 4 2 11 6 ESE 1024,1 7 0 0,0
24.01.2020 08:00:00 2,8 0,5 1,8 4,0 9,2 3 2 16 8 E 1024,0 8 0 0,0
24.01.2020 07:00:00 2,7 0,3 1,3 4,0 9,2 9 5 16 9 ESE 1023,9 8 0 0,0
24.01.2020 06:00:00 2,2 0,1 0,4 4,0 9,2 5 3 10 5 ESE 1023,9 8 0 0,0
24.01.2020 05:00:00 1,5 -0,3 -3,9 4,1 9,2 7 4 11 6 E 1023,6 7 0 0,0
24.01.2020 04:00:00 -0,5 -1,6 -3,8 4,1 9,2 3 1 8 4 ENE 1023,9 5 0 0,0
24.01.2020 03:00:00 -0,8 -2,4 -3,4 4,1 9,3 4 2 9 5 ESE 1024,4 5 0 0,0
24.01.2020 02:00:00 0,1 -2,0 -2,7 4,1 9,2 8 4 11 6 E 1024,4 6 0 0,0
24.01.2020 01:00:00 0,4 -1,7 -2,7 4,1 9,3 6 3 11 6 ENE 1024,7 7 0 0,0
24.01.2020 00:00:00 1,5 -0,9 -2,1 4,0 9,2 9 5 14 8 E 1024,6 8 0 0,0
23.01.2020 23:00:00 2,0 -1,3 -1,4 4,1 9,3 0 0 15 8 N 1024,8 8 0 0,0
23.01.2020 22:00:00 2,9 -0,7 -0,4 4,0 9,2 10 5 17 9 ESE 1024,6 8 0 0,0
23.01.2020 21:00:00 1,6 -1,0 -0,5 4,1 9,3 6 4 15 8 ENE 1024,9 8 0 0,0
23.01.2020 20:00:00 1,3 -0,9 -0,8 4,0 9,3 6 3 9 5 E 1025,1 8 0 0,0
23.01.2020 19:00:00 1,9 -0,7 -0,7 4,0 9,3 4 2 10 5 SE 1025,2 8 0 0,0
23.01.2020 18:00:00 1,5 -1,1 -0,7 4,0 9,3 4 2 6 4 SE 1025,2 9 2 0,0
23.01.2020 17:00:00 3,3 -0,5 1,9 4,0 9,3 5 3 16 9 E 1024,7 10 21 0,0
23.01.2020 16:00:00 3,9 -0,3 4,1 4,1 9,3 8 5 16 9 NE 1024,8 10 21 0,0
23.01.2020 15:00:00 3,3 -0,9 2,6 4,1 9,3 9 5 13 7 E 1025,3 10 3 0,0
23.01.2020 14:00:00 2,1 -1,2 2,2 4,1 9,3 6 3 16 8 ESE 1026,4 9 0 0,0
23.01.2020 13:00:00 2,5 -1,5 3,6 4,1 9,3 10 5 15 8 ESE 1027,2 9 44 0,0
23.01.2020 12:00:00 2,5 -0,8 1,7 4,2 9,3 4 2 11 6 NE 1027,7 8 33 0,0
23.01.2020 11:00:00 1,0 -1,7 2,5 4,2 9,4 6 3 10 5 ENE 1027,9 8 53 0,0
23.01.2020 10:00:00 -1,3 -1,7 -4,7 4,3 9,4 0 0 3 1 N 1028,6 4,8 40 0,0
23.01.2020 09:00:00 -3,8 -4,3 -6,5 4,3 9,4 0 0 3 2 N 1028,9 3,4 4 0,0
23.01.2020 08:00:00 -4,0 -4,5 -6,8 4,3 9,4 0 0 6 3 N 1028,7 3,1 0 0,0
23.01.2020 07:00:00 -3,9 -4,4 -6,7 4,3 9,4 0 0 3 1 N 1028,6 3,0 0 0,0
23.01.2020 06:00:00 -4,3 -5,1 -6,3 4,3 9,4 0 0 5 3 N 1028,9 2,8 0 0,0
23.01.2020 05:00:00 -4,2 -4,9 -6,1 4,4 9,4 0 0 3 2 N 1029,4 2,1 0 0,0
23.01.2020 04:00:00 -3,5 -4,0 -6,1 4,4 9,4 0 0 4 2 N 1030,1 2,3 0 0,0
23.01.2020 03:00:00 -3,5 -4,3 -5,3 4,4 9,4 0 0 4 2 N 1031,0 3,3 0 0,0
23.01.2020 02:00:00 -3,2 -4,0 -4,8 4,4 9,4 3 2 5 3 SSE 1030,7 3,0 0 0,0
23.01.2020 01:00:00 -2,6 -3,3 -5,0 4,4 9,4 0 0 4 2 N 1030,8 2,6 0 0,0
23.01.2020 00:00:00 -2,6 -3,3 -4,7 4,5 9,4 2 1 4 2 S 1031,4 3,0 0 0,0
22.01.2020 23:00:00 -1,5 -2,2 -4,5 4,5 9,4 0 0 2 1 N 1031,4 3,4 0 0,0
22.01.2020 22:00:00 -1,7 -2,8 -3,8 4,5 9,4 2 1 5 3 NE 1031,7 5 0 0,0
22.01.2020 21:00:00 -1,7 -3,0 -4,0 4,5 9,4 0 0 5 3 N 1031,6 7 0 0,0
22.01.2020 20:00:00 -1,4 -3,1 -3,6 4,5 9,4 0 0 3 1 N 1031,8 9 0 0,0
22.01.2020 19:00:00 0,0 -1,9 -2,5 4,4 9,4 0 0 6 3 N 1031,7 10 0 0,0
22.01.2020 18:00:00 2,7 -0,6 -0,7 4,4 9,4 2 1 14 7 NNE 1031,6 15 1 0,0
22.01.2020 17:00:00 5,7 0,2 4,8 4,4 9,4 10 5 13 7 ENE 1031,4 19 60 0,0
22.01.2020 16:00:00 7,2 -0,1 8,5 4,5 9,5 5 3 16 8 ESE 1031,6 17 60 0,0
22.01.2020 15:00:00 6,5 0,0 8,8 4,5 9,4 11 6 19 11 SE 1032,2 17 60 0,0
22.01.2020 14:00:00 6,1 -0,4 7,8 4,5 9,5 10 5 15 8 ESE 1032,6 18 60 0,0
22.01.2020 13:00:00 5,1 -1,2 7,7 4,6 9,5 4 2 10 5 NE 1033,4 17 60 0,0
22.01.2020 12:00:00 3,6 -1,2 7,4 4,6 9,5 7 4 12 6 ESE 1033,8 15 60 0,0
22.01.2020 11:00:00 0,6 -1,0 0,1 4,7 9,5 3 1 5 3 NW 1034,6 8 60 0,0
22.01.2020 10:00:00 -2,4 -3,2 -5,9 4,7 9,5 0 0 3 2 N 1035,3 6 60 0,0
22.01.2020 09:00:00 -5,3 -6,1 -8,0 4,7 9,4 0 0 4 2 N 1035,4 8 3 0,0
22.01.2020 08:00:00 -6,0 -7,1 -8,3 4,8 9,5 0 0 5 3 N 1034,9 10 0 0,0
22.01.2020 07:00:00 -5,7 -6,5 -8,1 4,8 9,5 4 2 5 3 SE 1034,9 6 0 0,0
22.01.2020 06:00:00 -4,6 -5,3 -7,8 4,8 9,5 0 0 4 2 N 1035,1 6 0 0,0
22.01.2020 05:00:00 -5,6 -6,6 -7,7 4,9 9,5 2 1 3 2 SSE 1035,6 6 0 0,0
22.01.2020 04:00:00 -5,3 -6,1 -7,6 5,0 9,5 0 0 5 3 N 1036,1 6 0 0,0
22.01.2020 03:00:00 -4,6 -5,3 -7,2 5,0 9,5 0 0 3 2 N 1036,7 6 0 0,0
22.01.2020 02:00:00 -4,4 -5,2 -6,6 5,0 9,5 2 1 4 2 S 1037,0 5 0 0,0
22.01.2020 01:00:00 -2,9 -3,6 -5,5 5,0 9,5 3 2 5 3 SSE 1037,0 7 0 0,0
22.01.2020 00:00:00 -3,7 -4,7 -5,8 5,1 9,5 2 1 5 3 SE 1037,2 7 0 0,0
21.01.2020 23:00:00 -3,0 -4,3 -5,2 5,1 9,5 0 0 5 3 N 1037,4 11 0 0,0
21.01.2020 22:00:00 -2,5 -3,9 -4,5 5,1 9,5 0 0 5 3 N 1037,7 14 0 0,0
21.01.2020 21:00:00 -1,5 -2,9 -4,4 5,0 9,5 0 0 5 3 N 1037,8 16 0 0,0
21.01.2020 20:00:00 -0,6 -3,1 -3,6 5,0 9,5 0 0 5 3 N 1038,0 20 0 0,0
21.01.2020 19:00:00 0,0 -2,2 -2,6 5,0 9,5 4 2 6 4 N 1037,6 17 0 0,0
21.01.2020 18:00:00 1,8 -1,5 0,2 5,0 9,5 3 2 6 3 SSW 1037,7 18 0 0,0
21.01.2020 17:00:00 7,9 -1,6 8,6 5,0 9,5 2 1 7 4 SSW 1037,2 20 60 0,0
21.01.2020 16:00:00 8,3 -1,0 11,4 5,0 9,5 6 3 9 5 S 1037,4 20 60 0,0
21.01.2020 15:00:00 8,3 -1,3 10,0 5,0 9,5 4 2 14 7 SE 1037,7 20 60 0,0
21.01.2020 14:00:00 6,7 -1,2 8,4 5,0 9,5 10 5 15 8 ESE 1038,5 19 60 0,0
21.01.2020 13:00:00 5,7 -1,0 7,0 5,1 9,6 7 4 14 8 ESE 1039,3 20 60 0,0
21.01.2020 12:00:00 3,9 -1,7 6,2 5,1 9,6 7 4 15 8 ESE 1040,5 19 60 0,0
21.01.2020 11:00:00 2,0 -2,2 2,2 5,2 9,6 8 5 13 7 ESE 1040,9 19 60 0,0
21.01.2020 10:00:00 -0,8 -1,9 -4,8 5,3 9,6 0 0 3 1 N 1041,1 16 60 0,0
21.01.2020 09:00:00 -3,9 -5,0 -7,3 5,3 9,6 2 1 13 7 E 1041,0 14 2 0,0
21.01.2020 08:00:00 -3,1 -3,6 -7,2 5,4 9,6 0 0 5 3 N 1040,6 18 0 0,0
21.01.2020 07:00:00 -4,0 -4,7 -7,1 5,5 9,6 2 1 3 2 ESE 1040,3 16 0 0,0
21.01.2020 06:00:00 -4,1 -4,9 -7,1 5,5 9,6 0 0 5 3 N 1040,2 17 0 0,0
21.01.2020 05:00:00 -3,1 -4,5 -6,4 5,6 9,6 4 2 8 4 NE 1040,1 20 0 0,0
21.01.2020 04:00:00 -3,7 -4,8 -6,3 5,6 9,6 0 0 6 3 N 1040,3 18 0 0,0
21.01.2020 03:00:00 -1,9 -3,6 -4,9 5,6 9,6 5 3 17 9 NNE 1040,7 20 0 0,0
21.01.2020 02:00:00 -1,0 -2,1 -5,7 5,7 9,6 11 6 16 9 NNE 1040,7 20 0 0,0
21.01.2020 01:00:00 -3,1 -3,9 -5,9 5,7 9,6 0 0 6 3 N 1041,5 19 0 0,0
21.01.2020 00:00:00 -2,9 -4,3 -5,2 5,8 9,6 3 1 5 3 NW 1041,6 20 0 0,0
20.01.2020 23:00:00 -1,2 -3,2 -3,7 5,8 9,6 2 1 16 9 NNE 1041,3 20 0 0,0
20.01.2020 22:00:00 -0,3 -3,0 -2,8 5,8 9,6 6 3 17 9 NNW 1041,2 20 0 0,0
20.01.2020 21:00:00 1,1 -1,6 -2,7 5,8 9,6 11 6 15 8 N 1041,3 20 0 0,0
20.01.2020 20:00:00 0,8 -1,9 -2,3 5,8 9,6 10 6 16 9 N 1041,7 20 0 0,0
20.01.2020 19:00:00 2,2 -1,2 -0,8 5,8 9,6 6 4 16 8 N 1041,6 20 0 0,0
20.01.2020 18:00:00 3,7 -0,7 2,4 5,8 9,6 13 7 32 17 NNE 1041,0 20 0 0,0
20.01.2020 17:00:00 5,7 -1,2 5,4 5,7 9,6 17 9 39 21 NNE 1040,7 20 57 0,0
20.01.2020 16:00:00 6,6 -0,9 7,1 5,7 9,6 27 15 42 23 NE 1040,5 20 60 0,0
20.01.2020 15:00:00 6,6 -1,1 7,8 5,7 9,6 27 15 44 24 NNE 1040,6 20 60 0,0
20.01.2020 14:00:00 6,5 -0,5 7,7 5,7 9,6 26 14 41 22 NNE 1041,1 20 60 0,0
20.01.2020 13:00:00 6,0 -0,7 6,7 5,8 9,6 22 12 39 21 NE 1041,7 20 60 0,0
20.01.2020 12:00:00 5,1 -0,7 7,2 5,8 9,7 19 10 34 19 NNE 1042,3 20 60 0,0
20.01.2020 11:00:00 3,8 -0,6 4,8 5,8 9,6 16 8 28 15 NNE 1042,8 20 60 0,0
20.01.2020 10:00:00 2,4 -0,9 0,8 5,9 9,6 12 7 25 13 N 1042,8 20 60 0,0
20.01.2020 09:00:00 1,4 -1,3 -1,2 5,9 9,6 14 8 26 14 NNE 1042,6 20 1 0,0
20.01.2020 08:00:00 0,5 -1,9 -1,2 6,0 9,6 8 4 21 11 NNE 1042,6 20 0 0,0
20.01.2020 07:00:00 1,3 -1,3 0,0 6,0 9,7 17 9 30 16 NNE 1042,1 20 0 0,0
20.01.2020 06:00:00 1,3 -0,9 0,0 6,0 9,6 15 8 34 18 NNE 1041,6 20 0 0,0
20.01.2020 05:00:00 1,7 -0,9 0,2 6,1 9,7 20 11 33 18 NNE 1041,2 20 0 0,0
20.01.2020 04:00:00 2,0 -0,8 1,0 6,1 9,7 20 11 39 21 NNE 1041,5 20 0 0,0
20.01.2020 03:00:00 2,2 -0,4 1,3 6,2 9,7 20 11 41 22 NNE 1041,5 20 0 0,0
20.01.2020 02:00:00 2,3 0,0 1,0 6,2 9,7 17 9 34 19 N 1041,9 20 0 0,0
20.01.2020 01:00:00 2,1 0,2 0,2 6,2 9,7 17 9 30 16 N 1042,1 20 0 0,0
20.01.2020 00:00:00 1,8 -0,1 -0,1 6,2 9,7 13 7 26 14 N 1042,4 20 0 0,0

tt = Température de l'air
td = dewpoint
tt 5cm = Température de l'air 5cm
tt -20cm = Température de l'air -20cm
tt -100cm = Température de l'air -100cm
ff = Vitesse du vent
fx = gusts
dd = Direction du vent
ppp = reduced air pressure
vv = visibility
sd = Ensoleillement
rr = Quantités de précipitations

stations d'obs. à proximité